Location: Sobotiste
(48.7170°N, 17.4000°E)
Time: 08:41:06
(UTC+02:00)

YUBILEINY - Pass Details

Date: 21 March 2026
Orbit: 1477 x 1509 km, 82.5° (Epoch: 17 April)

Event Time Altitude Azimuth Distance (km) Brightness Sun altitude
Rises 02:50:17 0° 348° (NNW) 4,619 ? -28.6°
Reaches altitude 10° 02:53:11 10° 347° (NNW) 3,632 ? -28.2°
Maximum altitude 03:01:51 74° 265° (W) 1,535 ? -27.1°
Enters shadow 03:06:12 34° 189° (S) 2,260 ? -26.5°
